Etusivu
METAR-TAF:

METAR-TAF

Lentoasemat :

Ontario Municipal Airport

Ontario, Oregon, Yhdysvallat

Leveyspiiri: 44-01-10N, Pituuspiiri: 117-00-35W, korkeus merenpinnasta: 667 m

Tämänhetkinen sää

Tämä raportti tehtiin 46 minuuttia sitten, kello 11.53 UTC
tyyntä
Lämpötila -1°C
Kosteus 80%
Ilmanpaine 1023 hPa
Näkyvyys: 16.1 km
selkeää

METAR: KONO 181153Z AUTO 00000KT 10SM CLR M01/M04 A3020 RMK AO2 SLP238 T10061039 10039 21017 57008

Aika: 05:39 (12:39 UTC)


TAF: puuttuu

Säähavainnot ja -ennusteet yli 4000 lentoasemalta (METAR- ja TAF-raportit).

Käytössä olevat sääasemat on merkitty karttaan keltaisilla ja punaisilla pisteillä.

Aseta hiiri pisteen päälle nähdäksesi sääaseman nimen.

Klikkaa sitten nähdäksesi säähavainnot ja -ennusteet.

Kartan vaihtaminen: klikkaa mustalla rastilla varustettuja vihreitä pisteitä, niin voit zoomata sisään; viivalla varustettua vihreää pistettä, niin voit zoomata ulos tai vihreitä nuolia, niin pääset viereisille kartoille.


METAR-TAF: